proflowers.com alexa rank chart, proflowers.com alexa rank daily changes

proflowers.com alexa rank chart, proflowers.com alexa rank daily changes

proflowers.com
Actual rank:
25 863

RANK HISTORY

Date Rank Diff
2017/12/14 25 863 -1 305
2017/12/13 27 168 -293
2017/12/12 27 461 -327
2017/12/11 27 788 -141
2017/12/10 27 929 -348
2017/12/09 28 277 -78
2017/12/08 28 355 -209
2017/12/07 28 564 -342
2017/12/06 28 906 -387
2017/12/05 29 293 +226
2017/12/04 29 067 -123
2017/12/03 29 190 -2
2017/12/02 29 192 -202
2017/12/01 29 394 -425
2017/11/30 29 819 -328
2017/11/29 30 147 -1 023
2017/11/28 31 170 -118
2017/11/27 31 288 -33
2017/11/26 31 321 +69
2017/11/25 31 252 -3
2017/11/24 31 255 -266
2017/11/23 31 521 -652
2017/11/22 32 173 -67
2017/11/21 32 240 +104
2017/11/20 32 136 -57
2017/11/19 32 193 +23
2017/11/18 32 170 +151
2017/11/17 32 019 -905
2017/11/16 32 924 -1 391
2017/11/15 34 315 -623
2017/11/14 34 938 +697
2017/11/13 34 241 +103
2017/11/12 34 138 +268
2017/11/11 33 870 -44
2017/11/10 33 914 -309
2017/11/09 34 223 -514
2017/11/08 34 737 -403
2017/11/07 35 140 +57
2017/11/06 35 083 +446
2017/11/05 34 637 +141
2017/11/04 34 496 +875
2017/11/03 33 621 +298
2017/11/02 33 323 -102
2017/11/01 33 425 +27
2017/10/31 33 398 +161
2017/10/30 33 237 +343
2017/10/29 32 894 +512
2017/10/28 32 382 -224
2017/10/27 32 606 +461
2017/10/26 32 145 -27
2017/10/25 32 172 +79
2017/10/24 32 093 -105
2017/10/23 32 198 +357
2017/10/22 31 841 +117
2017/10/21 31 724 +80
2017/10/20 31 644 +149
2017/10/19 31 495 -76
2017/10/18 31 571 -747
2017/10/17 32 318 -50
2017/10/16 32 368

WIDGET FOR YOUR SITE

DOMAINS WITH THE NEAREST RANK

Domain Rank
saruwakakun.com 25 858
hrt.hr 25 859
k-popstream.com 25 860
yousuu.com 25 861
krs-online.com.pl 25 862
proflowers.com 25 863
wotif.com 25 864
mountainside.com 25 865
speedtestcustom.com 25 866
iiyi.com 25 867
dundee.ac.uk 25 868

DOMAINS WITH THE NEAREST RANK BY TLD .com

Domain Rank
tracfone.com 25 850
whistleout.com 25 854
saruwakakun.com 25 858
k-popstream.com 25 860
yousuu.com 25 861
proflowers.com 25 863
wotif.com 25 864
mountainside.com 25 865
speedtestcustom.com 25 866
iiyi.com 25 867
elmercurio.com 25 870